Miscellaneous Local Product
Issued by NWS North Platte, NE

Home | Current Version | Previous Version | Graphics & Text | Print | Product List | Glossary On
Versions: 1 2 3 4 5 6 7 8 9 10 11 12 13 14 15 16 17 18 19 20 21 22 23 24 25 26 27 28 29 30 31 32 33 34 35 36 37 38 39 40 41 42 43 44 45 46 47 48 49 50
137
AXUS43 KLBF 180310
MISLBF


WESTERN AND NORTH CENTRAL NEBRASKA HOURLY WEATHER ROUNDUP
NATIONAL WEATHER SERVICE NORTH PLATTE NE
1000 PM CDT SUN SEP 17 2017

NOTE: "FAIR" INDICATES FEW OR NO CLOUDS BELOW 12,000 FEET WITH NO
SIGNIFICANT WEATHER AND/OR OBSTRUCTIONS TO VISIBILITY.

NOTE: STATIONS NOT REPORTING VARIABLES SUCH AS SKY/WEATHER OR
PRESSURE ARE PROVIDED BY RAWS AND APRS NETWORKS AND ARE NOT UNDER
NATIONAL WEATHER SERVICE QUALITY CONTROL.

...OBSERVATIONS IN AND NEAR THE EASTERN PANHANDLE OF NEBRASKA...

CITY           SKY/WX    TMP DP  RH WIND       PRES   REMARKS
GORDON         FAIR      59  52  77 S15       29.96F
CHADRON        PTCLDY    64  48  56 S22G30    29.92S
ALLIANCE       LGT RAIN  56  52  86 SE16      30.02F
SIDNEY         CLEAR     56  51  84 E5        30.06R
CRESCENT LAKE    N/A     55  54  96 NE9G21      N/A
$$

...OBSERVATIONS IN NORTHERN NEBRASKA AND FAR SOUTHERN SOUTH DAKOTA...

CITY           SKY/WX    TMP DP  RH WIND       PRES   REMARKS
WINNER         FAIR      54  49  83 SE9       30.05R
VALENTINE      CLOUDY    58  47  66 S10       30.05S
THEDFORD       CLOUDY    59  49  69 S5        30.09R
AINSWORTH      PTCLDY    55  48  77 SE5       30.07R
O`NEILL        CLOUDY    58  50  74 SE8       30.08S
ORD            CLOUDY    60  48  64 SE5       30.07F
BROKEN BOW     CLOUDY    62  49  62 SE8       30.08R
VALENTINE NWR    N/A     54  47  77 S6          N/A
HALSEY           N/A     56  47  71 SE6         N/A
BUTTE            N/A     52  47  84 E5          N/A
CHAMBERS         N/A     58  48  70 E3          N/A
EWING            N/A     58  51  77 SE3         N/A
$$

...OBSERVATIONS IN SOUTHWEST NEBRASKA AND FAR NORTHEAST COLORADO...

CITY           SKY/WX    TMP DP  RH WIND       PRES   REMARKS
WRAY           FAIR      59  50  72 S9        30.03F
HOLYOKE        FAIR      61  54  77 S10       30.03R
IMPERIAL       CLOUDY    61  52  72 SE14      30.02F
OGALLALA       MOCLDY    65  52  62 E6        30.02F
NORTH PLATTE   LGT RAIN  60  53  77 SE9       30.08R
MCCOOK         TSTM      62  54  74 S7        30.07R
LEXINGTON      CLOUDY    64  50  61 SE12      30.06F
STAPLETON        N/A     58  50  74 E3G12       N/A
GOTHENBURG       N/A     61  48  62 SE5         N/A
CALLAWAY         N/A     58  51  77 SE7         N/A
$$

...OBSERVATIONS IN CENTRAL LINCOLN COUNTY AREA...

CITY           SKY/WX    TMP DP  RH WIND       PRES   REMARKS
N.P. AIRPORT   LGT RAIN  60  53  77 SE9       30.08R
N.P. DOWNTOWN    N/A     62  52  70 CALM        N/A
N.P. SOUTHEAST   N/A     60  51  73 CALM        N/A
N.P. HILLCREST   N/A     61  51  70 SE12        N/A
$$

...SOME OBSERVATIONS FROM AROUND THE REGION...

CITY           SKY/WX    TMP DP  RH WIND       PRES   REMARKS
DENVER         CLOUDY    55  45  68 S9        30.04S
LIMON          CLOUDY    57  51  80 S12       30.09F
ASPEN          CLOUDY    53  40  61 S7        30.22R
LARAMIE        CLOUDY    50  33  52 SW9       30.16R
CASPER         CLEAR     47  35  63 W3        30.01R
CHEYENNE       CLOUDY    54  44  69 S3        30.10R
SCOTTSBLUFF    CLOUDY    56  52  86 SE13      30.02R
GRAND ISLAND   CLOUDY    62  52  69 SE8       30.10R
OMAHA          CLOUDY    66  52  60 SE6       30.11R
SIOUX FALLS    CLOUDY    61  50  67 SE6       30.09S
PIERRE         PTCLDY    58  48  69 SE14G24   29.98F
RAPID CITY     CLEAR     61  48  63 SE5       29.92R
BISMARCK       PTCLDY    48  45  89 SE6       30.01S
KANSAS CITY    CLOUDY    66  65  96 E8        30.11R
HILL CITY      LGT RAIN  63  57  81 SE3       30.08F
WICHITA        CLOUDY    68  67  96 E6        30.05S
DODGE CITY     CLOUDY    67  61  81 CALM      30.07S
OKLAHOMA CITY  CLOUDY    70  66  87 SE15G26   30.03S
DALLAS         MOCLDY    83  64  52 SE7       30.00R
AMARILLO       CLOUDY    67  58  72 S15       30.06F
$$




USA.gov is the U.S. government's official web portal to all federal, state and local government web resources and services.